Flag for Germany Weather past 2 weeks in Trier, Rhineland-Palatinate, Germany

Now
31 °F

Low clouds.


Feels Like: 31 °F
Forecast: 33 / 36 °F
Wind: 2 mph from Southwest

Location: Trier-Petrisberg

Current Time: Jan 25, 2015 at 1:17:10 PM

Latest Report: Jan 25, 2015 at 12:00 PM


Visibility: 6 mi

Pressure: 30.49 "Hg

Humidity: 97%

Dew point: 30 °F

Location of TrierLocation

Historic Weather in Trier — Graph

°F

Trier temperature yesterday

Maximum temperature yesterday: 33 °F (at 8:00 PM)
Minimum temperature yesterday: 26 °F (at 12:00 AM)
Average temperature yesterday: 30 °F

Past Weeks' High & Low Weather Summary

 TemperatureHumidityPressure
High54 °F (Jan 13, 2:00 PM)100% (Jan 16, 10:00 PM)30.50 "Hg (Jan 16, 10:00 PM)
Low24 °F (Jan 19, 4:00 AM)52% (Jan 13, 2:00 PM)29.60 "Hg (Jan 15, 3:00 PM)
Average36 °F87%30.01 "Hg
* Reported Jan 10 12:00 Noon — Jan 25 12:00 Noon, Trier, Weather by CustomWeather, © 2014

Note: Actual official high and low records may vary slightly from our data, if they occured in-between our weather recording intervals... More about our weather records

Advertising

Trier weather history for previous 24 hours

 ConditionsComfort  
Time TempWeatherWind HumidityBarometerVisibility
12:00 PM
Jan 25
31 °FLow clouds.2 mph97%30.49 "Hg6 mi
11:00 AM29 °FOvercast.3 mph99%30.50 "Hg7 mi
10:00 AM29 °FOvercast.1 mph98%30.48 "Hg7 mi
9:00 AM28 °FOvercast.1 mph100%30.49 "Hg7 mi
8:00 AM28 °FFog.1 mph100%30.47 "Hg9 mi
7:00 AM27 °FFog.1 mph100%30.46 "Hg6 mi
6:00 AM26 °FFog.1 mph100%30.45 "Hg4 mi
4:00 AM26 °FPassing clouds.2 mph100%30.42 "Hg1 mi
3:00 AM27 °FFog.1 mph100%30.41 "Hg3 mi
2:00 AM29 °FFog.2 mph98%30.40 "Hg2 mi
1:00 AM30 °FFog.2 mph97%30.39 "Hg4 mi
12:00 AM29 °FClear.1 mph94%30.38 "Hg7 mi
11:00 PM
Jan 24
32 °FClear.1 mph90%30.35 "Hg14 mi
10:00 PM33 °FClear.2 mph92%30.33 "Hg14 mi
9:00 PM33 °FPassing clouds.2 mph92%30.31 "Hg12 mi
8:00 PM33 °FOvercast.2 mph95%30.29 "Hg11 mi
7:00 PM32 °FOvercast.1 mph96%30.26 "Hg9 mi
6:00 PM32 °FOvercast.1 mph98%30.24 "Hg7 mi
5:00 PM32 °FOvercast.2 mph98%30.20 "Hg5 mi
4:00 PM31 °FOvercast.3 mph99%30.17 "Hg4 mi
3:00 PM31 °FLight snow. Low clouds.2 mph99%30.16 "Hg1 mi
2:00 PM31 °FSnow. Low clouds.5 mph99%30.15 "Hg1 mi
1:00 PM30 °FSnow. Low clouds.5 mph100%30.15 "Hg1 mi
Weather by CustomWeather, © 2014

See weather overviewHow to use our weather pages